<?xml version='1.0' encoding='UTF-8'?>
<gpx xmlns="http://www.topografix.com/GPX/1/1" creator="www.balnam.be" version="1.1" xmlns:xsi="http://www.w3.org/2001/XMLSchema-instance" xsi:schemaLocation="http://www.topografix.com/GPX/1/1 http://www.topografix.com/GPX/1/1/gpx.xsd">
<trk>
<name>hhoat1</name>
<cmt>d</cmt>
<desc>Autreppe Chemin n°1 </desc>
<link href="https://chemins.be/autreppe/chemin/1"/><trkseg>
<trkpt lat="50.350154" lon="3.744400"><time>2026-05-02T15:25:03Z</time></trkpt>
<trkpt lat="50.349735" lon="3.742455"><time>2026-05-02T15:35:03Z</time></trkpt>
</trkseg></trk>
<trk>
<name>hhoat1</name>
<cmt>s</cmt>
<desc>Autreppe Chemin n°1 </desc>
<link href="https://chemins.be/autreppe/chemin/1"/><trkseg>
<trkpt lat="50.349735" lon="3.742455"><time>2026-05-02T15:35:03Z</time></trkpt>
<trkpt lat="50.349546" lon="3.741714"><time>2026-05-02T15:45:03Z</time></trkpt>
<trkpt lat="50.349021" lon="3.741662"><time>2026-05-02T15:55:03Z</time></trkpt>
</trkseg>
</trk>
<trk>
<name>hhoat10</name>
<cmt>r</cmt>
<desc>Autreppe Chemin n°10 Chemin de la Maladrerie</desc>
<link href="https://chemins.be/autreppe/chemin/10"/><trkseg>
<trkpt lat="50.343510" lon="3.735134"><time>2026-05-02T15:25:03Z</time></trkpt>
<trkpt lat="50.342954" lon="3.733760"><time>2026-05-02T15:35:03Z</time></trkpt>
</trkseg>
</trk>
<trk>
<name>hhoat11</name>
<cmt>q</cmt>
<desc>Autreppe Sentier n°11 </desc>
<link href="https://chemins.be/autreppe/sentier/11"/><trkseg>
<trkpt lat="50.345216" lon="3.729644"><time>2026-05-02T15:25:03Z</time></trkpt>
<trkpt lat="50.345479" lon="3.729369"><time>2026-05-02T15:35:03Z</time></trkpt>
<trkpt lat="50.346300" lon="3.729060"><time>2026-05-02T15:45:03Z</time></trkpt>
<trkpt lat="50.346815" lon="3.729884"><time>2026-05-02T15:55:03Z</time></trkpt>
<trkpt lat="50.347704" lon="3.728738"><time>2026-05-02T16:05:03Z</time></trkpt>
</trkseg></trk>
<trk>
<name>hhoat11</name>
<cmt>r</cmt>
<desc>Autreppe Sentier n°11 </desc>
<link href="https://chemins.be/autreppe/sentier/11"/><trkseg>
<trkpt lat="50.347704" lon="3.728738"><time>2026-05-02T16:05:03Z</time></trkpt>
<trkpt lat="50.348022" lon="3.729597"><time>2026-05-02T16:15:03Z</time></trkpt>
<trkpt lat="50.348820" lon="3.729163"><time>2026-05-02T16:25:03Z</time></trkpt>
<trkpt lat="50.349138" lon="3.729644"><time>2026-05-02T16:35:03Z</time></trkpt>
</trkseg></trk>
<trk>
<name>hhoat11</name>
<cmt>q</cmt>
<desc>Autreppe Sentier n°11 </desc>
<link href="https://chemins.be/autreppe/sentier/11"/><trkseg>
<trkpt lat="50.349138" lon="3.729644"><time>2026-05-02T16:35:03Z</time></trkpt>
<trkpt lat="50.354322" lon="3.731117"><time>2026-05-02T16:45:03Z</time></trkpt>
</trkseg>
</trk>
<trk>
<name>hhoat12</name>
<cmt>r</cmt>
<desc>Autreppe Sentier n°12 Rue Tonin</desc>
<link href="https://chemins.be/autreppe/sentier/12"/><trkseg>
<trkpt lat="50.352364" lon="3.741488"><time>2026-05-02T15:25:03Z</time></trkpt>
<trkpt lat="50.351887" lon="3.739174"><time>2026-05-02T15:35:03Z</time></trkpt>
</trkseg></trk>
<trk>
<name>hhoat12</name>
<cmt>q</cmt>
<desc>Autreppe Sentier n°12 Rue Tonin</desc>
<link href="https://chemins.be/autreppe/sentier/12"/><trkseg>
<trkpt lat="50.351887" lon="3.739174"><time>2026-05-02T15:35:03Z</time></trkpt>
<trkpt lat="50.351281" lon="3.736188"><time>2026-05-02T15:45:03Z</time></trkpt>
<trkpt lat="50.350300" lon="3.735107"><time>2026-05-02T15:55:03Z</time></trkpt>
<trkpt lat="50.350092" lon="3.733837"><time>2026-05-02T16:05:03Z</time></trkpt>
<trkpt lat="50.349041" lon="3.729605"><time>2026-05-02T16:15:03Z</time></trkpt>
<trkpt lat="50.348790" lon="3.729017"><time>2026-05-02T16:25:03Z</time></trkpt>
<trkpt lat="50.347995" lon="3.727150"><time>2026-05-02T16:35:03Z</time></trkpt>
<trkpt lat="50.347770" lon="3.726524"><time>2026-05-02T16:45:03Z</time></trkpt>
<trkpt lat="50.347009" lon="3.725502"><time>2026-05-02T16:55:03Z</time></trkpt>
<trkpt lat="50.346494" lon="3.723709"><time>2026-05-02T17:05:03Z</time></trkpt>
</trkseg>
</trk>
<trk>
<name>hhoat13</name>
<cmt>q</cmt>
<desc>Autreppe Sentier n°13 Rue Chevauchoir</desc>
<link href="https://chemins.be/autreppe/sentier/13"/><trkseg>
<trkpt lat="50.349061" lon="3.724820"><time>2026-05-02T15:25:03Z</time></trkpt>
<trkpt lat="50.347801" lon="3.726623"><time>2026-05-02T15:35:03Z</time></trkpt>
<trkpt lat="50.348031" lon="3.727241"><time>2026-05-02T15:45:03Z</time></trkpt>
<trkpt lat="50.347418" lon="3.728013"><time>2026-05-02T15:55:03Z</time></trkpt>
</trkseg></trk>
<trk>
<name>hhoat13</name>
<cmt>r</cmt>
<desc>Autreppe Sentier n°13 Rue Chevauchoir</desc>
<link href="https://chemins.be/autreppe/sentier/13"/><trkseg>
<trkpt lat="50.347418" lon="3.728013"><time>2026-05-02T15:55:03Z</time></trkpt>
<trkpt lat="50.345764" lon="3.726743"><time>2026-05-02T16:05:03Z</time></trkpt>
<trkpt lat="50.345227" lon="3.727567"><time>2026-05-02T16:15:03Z</time></trkpt>
</trkseg></trk>
<trk>
<name>hhoat13</name>
<cmt>q</cmt>
<desc>Autreppe Sentier n°13 Rue Chevauchoir</desc>
<link href="https://chemins.be/autreppe/sentier/13"/><trkseg>
<trkpt lat="50.345227" lon="3.727567"><time>2026-05-02T16:15:03Z</time></trkpt>
<trkpt lat="50.344822" lon="3.729111"><time>2026-05-02T16:25:03Z</time></trkpt>
</trkseg></trk>
<trk>
<name>hhoat13</name>
<cmt>r</cmt>
<desc>Autreppe Sentier n°13 Rue Chevauchoir</desc>
<link href="https://chemins.be/autreppe/sentier/13"/><trkseg>
<trkpt lat="50.344822" lon="3.729111"><time>2026-05-02T16:25:03Z</time></trkpt>
<trkpt lat="50.344405" lon="3.728671"><time>2026-05-02T16:35:03Z</time></trkpt>
</trkseg></trk>
<trk>
<name>hhoat13</name>
<cmt>q</cmt>
<desc>Autreppe Sentier n°13 Rue Chevauchoir</desc>
<link href="https://chemins.be/autreppe/sentier/13"/><trkseg>
<trkpt lat="50.344405" lon="3.728671"><time>2026-05-02T16:35:03Z</time></trkpt>
<trkpt lat="50.343072" lon="3.730869"><time>2026-05-02T16:45:03Z</time></trkpt>
</trkseg>
</trk>
<trk>
<name>hhoat14</name>
<cmt>q</cmt>
<desc>Autreppe Sentier n°14 </desc>
<link href="https://chemins.be/autreppe/sentier/14"/><trkseg>
<trkpt lat="50.350332" lon="3.735068"><time>2026-05-02T15:25:03Z</time></trkpt>
<trkpt lat="50.349839" lon="3.736939"><time>2026-05-02T15:35:03Z</time></trkpt>
</trkseg>
</trk>
<trk>
<name>hhoat15</name>
<cmt>v</cmt>
<desc>Autreppe Sentier n°15 </desc>
<link href="https://chemins.be/autreppe/sentier/15"/><trkseg>
<trkpt lat="50.347990" lon="3.729775"><time>2026-05-02T15:25:03Z</time></trkpt>
<trkpt lat="50.347385" lon="3.730643"><time>2026-05-02T15:35:03Z</time></trkpt>
<trkpt lat="50.347500" lon="3.730869"><time>2026-05-02T15:45:03Z</time></trkpt>
<trkpt lat="50.347413" lon="3.730972"><time>2026-05-02T15:55:03Z</time></trkpt>
</trkseg>
</trk>
<trk>
<name>hhoat16</name>
<cmt>q</cmt>
<desc>Autreppe Sentier n°16 </desc>
<link href="https://chemins.be/autreppe/sentier/16"/><trkseg>
<trkpt lat="50.349028" lon="3.741643"><time>2026-05-02T15:25:03Z</time></trkpt>
<trkpt lat="50.349247" lon="3.738759"><time>2026-05-02T15:35:03Z</time></trkpt>
<trkpt lat="50.349368" lon="3.738107"><time>2026-05-02T15:45:03Z</time></trkpt>
<trkpt lat="50.349091" lon="3.737302"><time>2026-05-02T15:55:03Z</time></trkpt>
<trkpt lat="50.349170" lon="3.736920"><time>2026-05-02T16:05:03Z</time></trkpt>
</trkseg>
</trk>
<trk>
<name>hhoat18</name>
<cmt>s</cmt>
<desc>Autreppe Sentier n°18 </desc>
<link href="https://chemins.be/autreppe/sentier/18"/><trkseg>
<trkpt lat="50.348110" lon="3.734086"><time>2026-05-02T15:25:03Z</time></trkpt>
<trkpt lat="50.347732" lon="3.732489"><time>2026-05-02T15:35:03Z</time></trkpt>
<trkpt lat="50.347096" lon="3.731451"><time>2026-05-02T15:45:03Z</time></trkpt>
</trkseg></trk>
<trk>
<name>hhoat18</name>
<cmt>d</cmt>
<desc>Autreppe Sentier n°18 </desc>
<link href="https://chemins.be/autreppe/sentier/18"/><trkseg>
<trkpt lat="50.347096" lon="3.731451"><time>2026-05-02T15:45:03Z</time></trkpt>
<trkpt lat="50.345486" lon="3.729356"><time>2026-05-02T15:55:03Z</time></trkpt>
</trkseg>
</trk>
<trk>
<name>hhoat19</name>
<cmt>q</cmt>
<desc>Autreppe Sentier n°19 </desc>
<link href="https://chemins.be/autreppe/sentier/19"/><trkseg>
<trkpt lat="50.348100" lon="3.733980"><time>2026-05-02T15:25:03Z</time></trkpt>
<trkpt lat="50.347306" lon="3.733903"><time>2026-05-02T15:35:03Z</time></trkpt>
<trkpt lat="50.346348" lon="3.734822"><time>2026-05-02T15:45:03Z</time></trkpt>
<trkpt lat="50.344708" lon="3.736103"><time>2026-05-02T15:55:03Z</time></trkpt>
<trkpt lat="50.344297" lon="3.736755"><time>2026-05-02T16:05:03Z</time></trkpt>
</trkseg>
</trk>
<trk>
<name>hhoat20</name>
<cmt>q</cmt>
<desc>Autreppe Sentier n°20 </desc>
<link href="https://chemins.be/autreppe/sentier/20"/><trkseg>
<trkpt lat="50.347805" lon="3.739407"><time>2026-05-02T15:25:03Z</time></trkpt>
<trkpt lat="50.345975" lon="3.739253"><time>2026-05-02T15:35:03Z</time></trkpt>
<trkpt lat="50.345132" lon="3.738936"><time>2026-05-02T15:45:03Z</time></trkpt>
</trkseg>
</trk>
<trk>
<name>hhoat21</name>
<cmt>q</cmt>
<desc>Autreppe Sentier n°21 </desc>
<link href="https://chemins.be/autreppe/sentier/21"/><trkseg>
<trkpt lat="50.348882" lon="3.729004"><time>2026-05-02T15:25:03Z</time></trkpt>
<trkpt lat="50.349358" lon="3.727580"><time>2026-05-02T15:35:03Z</time></trkpt>
<trkpt lat="50.349419" lon="3.725468"><time>2026-05-02T15:45:03Z</time></trkpt>
</trkseg>
</trk>
<trk>
<name>hhoat22</name>
<cmt>q</cmt>
<desc>Autreppe Sentier n°22 Rue Chevauchoir</desc>
<link href="https://chemins.be/autreppe/sentier/22"/><trkseg>
<trkpt lat="50.345709" lon="3.732908"><time>2026-05-02T15:25:03Z</time></trkpt>
<trkpt lat="50.345770" lon="3.732747"><time>2026-05-02T15:35:03Z</time></trkpt>
<trkpt lat="50.345432" lon="3.730680"><time>2026-05-02T15:45:03Z</time></trkpt>
<trkpt lat="50.345332" lon="3.730494"><time>2026-05-02T15:55:03Z</time></trkpt>
</trkseg>
</trk>
<trk>
<name>hhoat23</name>
<cmt>q</cmt>
<desc>Autreppe Sentier n°23 </desc>
<link href="https://chemins.be/autreppe/sentier/23"/><trkseg>
<trkpt lat="50.345269" lon="3.733800"><time>2026-05-02T15:25:03Z</time></trkpt>
<trkpt lat="50.344431" lon="3.734624"><time>2026-05-02T15:35:03Z</time></trkpt>
<trkpt lat="50.343631" lon="3.735053"><time>2026-05-02T15:45:03Z</time></trkpt>
</trkseg>
</trk>
<trk>
<name>hhoat3</name>
<cmt>v</cmt>
<desc>Autreppe Chemin n°3 Rue des Croix</desc>
<link href="https://chemins.be/autreppe/chemin/3"/><trkseg>
<trkpt lat="50.348182" lon="3.730474"><time>2026-05-02T15:25:03Z</time></trkpt>
<trkpt lat="50.347653" lon="3.731054"><time>2026-05-02T15:35:03Z</time></trkpt>
<trkpt lat="50.347410" lon="3.731036"><time>2026-05-02T15:45:03Z</time></trkpt>
</trkseg></trk>
<trk>
<name>hhoat3</name>
<cmt>r</cmt>
<desc>Autreppe Chemin n°3 Rue des Croix</desc>
<link href="https://chemins.be/autreppe/chemin/3"/><trkseg>
<trkpt lat="50.347410" lon="3.731036"><time>2026-05-02T15:45:03Z</time></trkpt>
<trkpt lat="50.345800" lon="3.733285"><time>2026-05-02T15:55:03Z</time></trkpt>
</trkseg>
</trk>
<trk>
<name>hhoat5</name>
<cmt>v</cmt>
<desc>Autreppe Chemin n°5 </desc>
<link href="https://chemins.be/autreppe/chemin/5"/><trkseg>
<trkpt lat="50.344442" lon="3.725827"><time>2026-05-02T15:25:03Z</time></trkpt>
<trkpt lat="50.344075" lon="3.725516"><time>2026-05-02T15:35:03Z</time></trkpt>
</trkseg>
</trk>
<trk>
<name>hhoat6</name>
<cmt>v</cmt>
<desc>Autreppe Chemin n°6 </desc>
<link href="https://chemins.be/autreppe/chemin/6"/><trkseg>
<trkpt lat="50.349466" lon="3.728431"><time>2026-05-02T15:25:03Z</time></trkpt>
<trkpt lat="50.352882" lon="3.725111"><time>2026-05-02T15:35:03Z</time></trkpt>
<trkpt lat="50.353776" lon="3.723544"><time>2026-05-02T15:45:03Z</time></trkpt>
</trkseg>
</trk>
<trk>
<name>hhoat8</name>
<cmt>v</cmt>
<desc>Autreppe Chemin n°8 Chemin du Pluvinage</desc>
<link href="https://chemins.be/autreppe/chemin/8"/><trkseg>
<trkpt lat="50.347813" lon="3.739236"><time>2026-05-02T15:25:03Z</time></trkpt>
<trkpt lat="50.347695" lon="3.739417"><time>2026-05-02T15:35:03Z</time></trkpt>
<trkpt lat="50.347358" lon="3.741756"><time>2026-05-02T15:45:03Z</time></trkpt>
</trkseg>
</trk>
<trk>
<name>hhoat9</name>
<cmt>v</cmt>
<desc>Autreppe Chemin n°9 </desc>
<link href="https://chemins.be/autreppe/chemin/9"/><trkseg>
<trkpt lat="50.350085" lon="3.738143"><time>2026-05-02T15:25:03Z</time></trkpt>
<trkpt lat="50.349702" lon="3.738199"><time>2026-05-02T15:35:03Z</time></trkpt>
</trkseg></trk>
<trk>
<name>hhoat9</name>
<cmt>q</cmt>
<desc>Autreppe Chemin n°9 </desc>
<link href="https://chemins.be/autreppe/chemin/9"/><trkseg>
<trkpt lat="50.349702" lon="3.738199"><time>2026-05-02T15:35:03Z</time></trkpt>
<trkpt lat="50.349337" lon="3.738100"><time>2026-05-02T15:45:03Z</time></trkpt>
<trkpt lat="50.349233" lon="3.738808"><time>2026-05-02T15:55:03Z</time></trkpt>
</trkseg>
</trk>
</gpx>